Retour au catalogue

SL-8 DEB

ActifPO
NORAD 29286·DEBRIS·🇷🇺 Russia

Lancé Dec 17, 1981 depuis Plesetsk Cosmodrome

Loading…

Prochains Passages (prochaines 24 heures)

TLE

FraisSource: Space-Track

Époque: Sep 13, 2026, 03:58 UTC

1 29286U 81120Q   26256.16530477 -.00000082  00000-0 -10498-2 0  9999
2 29286  82.9758  39.8457 0001257 291.7614 188.1534 12.06032410598213

Suivez SL-8 DEB en temps réel avec AllMySat

Download on the App Store